Tracking 28790 objects as of 19-Apr-2024
HD Live streaming from Space Station
objects crossing your sky now

FENGYUN 1C DEB

Track FENGYUN 1C DEB now!
10-day predictions


NORAD ID: 30162
Int'l Code: 1999-025TT
Perigee: 838.8 km
Apogee: 1,326.5 km
Inclination: 99.5 °
Period: 106.7 minutes
Semi major axis: 7453 km
RCS: 0.0714 m2 (small)
Launch date: May 10, 1999
Source: People's Republic of China (PRC)
Launch site: Taiyaun Space Center, China (TSC)

Note: This is SATELLITE DEBRIS
Your satellite tracking list
Your tracking list is empty




NASA's NSSDC Master Catalog

Two Line Element Set (TLE):
1 30162U 99025TT  24109.79370052  .00004195  00000-0  48507-2 0  9991
2 30162  99.5224 184.6977 0327161  62.9889  56.8844 13.49107013845167
Source of the keplerian elements: AFSPC